| time (UTC) | temp F | wind direction | speed MPH | gust MPH | rain 1hr in | rain 24hr in | rain mn in | humidity % | barometer mb |
| 20260901184200 | 92 | 249 | 0.0 | 3.0 | 0.00 | 0.00 | 0.00 | 65 | 1015.9 |
| 20260901183656 | 92 | 271 | 0.0 | 2.0 | 0.00 | 0.00 | 0.00 | 65 | 1015.9 |
| 20260901183155 | 91 | 94 | 1.0 | 2.0 | 0.00 | 0.00 | 0.00 | 66 | 1015.8 |
| 20260901182652 | 91 | 215 | 1.0 | 3.0 | 0.00 | 0.00 | 0.00 | 65 | 1015.7 |
| 20260901182150 | 91 | 271 | 1.0 | 2.0 | 0.00 | 0.00 | 0.00 | 64 | 1015.7 |
| 20260901181645 | 92 | 248 | 5.0 | 7.0 | 0.00 | 0.00 | 0.00 | 62 | 1015.8 |
| 20260901181139 | 93 | 238 | 4.0 | 6.0 | 0.00 | 0.00 | 0.00 | 61 | 1015.6 |
| 20260901180634 | 92 | 266 | 1.0 | 5.0 | 0.00 | 0.00 | 0.00 | 63 | 1015.6 |
| 20260901180128 | 93 | 212 | 1.0 | 6.0 | 0.00 | 0.00 | 0.00 | 61 | 1015.8 |
| 20260901175627 | 92 | 291 | 2.0 | 6.0 | 0.00 | 0.00 | 0.00 | 62 | 1015.8 |
| 20260901175122 | 93 | 250 | 1.0 | 2.0 | 0.00 | 0.00 | 0.00 | 61 | 1015.7 |
| 20260901174617 | 93 | 252 | 1.0 | 3.0 | 0.00 | 0.00 | 0.00 | 60 | 1015.9 |
| 20260901174114 | 93 | 256 | 4.0 | 6.0 | 0.00 | 0.00 | 0.00 | 60 | 1015.7 |
| 20260901173614 | 93 | 263 | 3.0 | 3.0 | 0.00 | 0.00 | 0.00 | 59 | 1016.0 |
| 20260901173109 | 93 | 272 | 1.0 | 2.0 | 0.00 | 0.00 | 0.00 | 60 | 1016.1 |
| 20260901172605 | 92 | 252 | 1.0 | 5.0 | 0.00 | 0.00 | 0.00 | 63 | 1015.9 |
| 20260901172103 | 92 | 244 | 2.0 | 5.0 | 0.00 | 0.00 | 0.00 | 61 | 1015.9 |
| 20260901171602 | 91 | 252 | 2.0 | 2.0 | 0.00 | 0.00 | 0.00 | 62 | 1016.2 |
| 20260901171056 | 91 | 252 | 0.0 | 2.0 | 0.00 | 0.00 | 0.00 | 65 | 1016.2 |
| 20260901170555 | 91 | 251 | 1.0 | 1.0 | 0.00 | 0.00 | 0.00 | 65 | 1016.2 |
| 20260901170050 | 91 | 266 | 4.0 | 6.0 | 0.00 | 0.00 | 0.00 | 63 | 1016.3 |
| 20260901165544 | 91 | 28 | 0.0 | 5.0 | 0.00 | 0.00 | 0.00 | 63 | 1016.4 |
| 20260901165040 | 91 | 253 | 1.0 | 1.0 | 0.00 | 0.00 | 0.00 | 64 | 1016.4 |
| 20260901164535 | 89 | 247 | 2.0 | 2.0 | 0.00 | 0.00 | 0.00 | 67 | 1016.7 |
| 20260901164030 | 89 | 258 | 1.0 | 5.0 | 0.00 | 0.00 | 0.00 | 68 | 1016.6 |
| 20260901163525 | 89 | 288 | 2.0 | 6.0 | 0.00 | 0.00 | 0.00 | 67 | 1016.7 |
| 20260901163025 | 90 | 291 | 1.0 | 5.0 | 0.00 | 0.00 | 0.00 | 66 | 1016.9 |
| 20260901162520 | 89 | 245 | 1.0 | 3.0 | 0.00 | 0.00 | 0.00 | 65 | 1016.9 |
| 20260901162019 | 88 | 251 | 1.0 | 2.0 | 0.00 | 0.00 | 0.00 | 68 | 1017.0 |
| 20260901161518 | 88 | 252 | 1.0 | 1.0 | 0.00 | 0.00 | 0.00 | 67 | 1016.6 |
| 20260901161018 | 88 | 228 | 2.0 | 5.0 | 0.00 | 0.00 | 0.00 | 67 | 1016.9 |
| 20260901160515 | 88 | 263 | 1.0 | 1.0 | 0.00 | 0.00 | 0.00 | 68 | 1017.1 |
| 20260901160014 | 88 | 257 | 2.0 | 3.0 | 0.00 | 0.00 | 0.00 | 68 | 1016.7 |
| 20260901155508 | 88 | 272 | 1.0 | 3.0 | 0.00 | 0.00 | 0.00 | 68 | 1016.9 |
| 20260901155004 | 89 | 252 | 1.0 | 3.0 | 0.00 | 0.00 | 0.00 | 67 | 1017.0 |
| 20260901154504 | 87 | 294 | 2.0 | 2.0 | 0.00 | 0.00 | 0.00 | 69 | 1017.0 |
| 20260901153958 | 87 | 247 | 2.0 | 3.0 | 0.00 | 0.00 | 0.00 | 71 | 1017.0 |
| 20260901153453 | 87 | 3 | 2.0 | 2.0 | 0.00 | 0.00 | 0.00 | 69 | 1017.3 |
| 20260901152952 | 87 | 272 | 2.0 | 6.0 | 0.00 | 0.00 | 0.00 | 70 | 1017.2 |
| 20260901152447 | 86 | 230 | 0.0 | 3.0 | 0.00 | 0.00 | 0.00 | 70 | 1017.1 |
| 20260901151947 | 86 | 246 | 1.0 | 2.0 | 0.00 | 0.00 | 0.00 | 71 | 1017.2 |
| 20260901151442 | 85 | 211 | 3.0 | 5.0 | 0.00 | 0.00 | 0.00 | 72 | 1017.4 |
| 20260901150941 | 86 | 241 | 1.0 | 5.0 | 0.00 | 0.00 | 0.00 | 71 | 1017.1 |
| 20260901150439 | 84 | 241 | 1.0 | 3.0 | 0.00 | 0.00 | 0.00 | 73 | 1017.3 |
| 20260901145937 | 84 | 264 | 1.0 | 6.0 | 0.00 | 0.00 | 0.00 | 73 | 1017.3 |
| 20260901145431 | 83 | 249 | 1.0 | 2.0 | 0.00 | 0.00 | 0.00 | 75 | 1017.4 |
| 20260901144926 | 82 | 265 | 2.0 | 5.0 | 0.00 | 0.00 | 0.00 | 78 | 1017.8 |
| 20260901144421 | 81 | 275 | 0.0 | 3.0 | 0.00 | 0.00 | 0.00 | 78 | 1017.7 |
| 20260901143917 | 82 | 237 | 1.0 | 2.0 | 0.00 | 0.00 | 0.00 | 79 | 1017.4 |
| 20260901143413 | 82 | 267 | 0.0 | 1.0 | 0.00 | 0.00 | 0.00 | 79 | 1017.5 |
| 20260901142909 | 81 | 240 | 1.0 | 1.0 | 0.00 | 0.00 | 0.00 | 79 | 1017.4 |
| 20260901142408 | 80 | 230 | 0.0 | 2.0 | 0.00 | 0.00 | 0.00 | 80 | 1017.4 |
| 20260901141903 | 80 | 275 | 1.0 | 2.0 | 0.00 | 0.00 | 0.00 | 80 | 1017.7 |
| 20260901141358 | 80 | 268 | 1.0 | 3.0 | 0.00 | 0.00 | 0.00 | 80 | 1017.6 |
| 20260901140857 | 80 | 277 | 2.0 | 5.0 | 0.00 | 0.00 | 0.00 | 81 | 1017.4 |
| 20260901140355 | 79 | 263 | 0.0 | 1.0 | 0.00 | 0.00 | 0.00 | 81 | 1017.2 |
| 20260901135850 | 79 | 243 | 1.0 | 2.0 | 0.00 | 0.00 | 0.00 | 82 | 1017.1 |
| 20260901135346 | 79 | 281 | 1.0 | 5.0 | 0.00 | 0.00 | 0.00 | 82 | 1017.1 |
| 20260901134841 | 79 | 271 | 0.0 | 1.0 | 0.00 | 0.00 | 0.00 | 83 | 1016.9 |
| 20260901134337 | 78 | 254 | 0.0 | 3.0 | 0.00 | 0.00 | 0.00 | 82 | 1017.0 |
| 20260901133831 | 79 | 269 | 1.0 | 1.0 | 0.00 | 0.00 | 0.00 | 81 | 1016.5 |
| 20260901133330 | 78 | 250 | 1.0 | 1.0 | 0.00 | 0.00 | 0.00 | 83 | 1016.5 |
| 20260901132828 | 78 | 284 | 2.0 | 3.0 | 0.00 | 0.00 | 0.00 | 84 | 1016.5 |
| 20260901132324 | 78 | 270 | 1.0 | 2.0 | 0.00 | 0.00 | 0.00 | 84 | 1016.6 |
| 20260901131818 | 77 | 254 | 3.0 | 5.0 | 0.00 | 0.00 | 0.00 | 85 | 1016.7 |
| 20260901131317 | 77 | 247 | 0.0 | 1.0 | 0.00 | 0.00 | 0.00 | 85 | 1016.7 |
| 20260901130812 | 78 | 282 | 0.0 | 1.0 | 0.00 | 0.00 | 0.00 | 85 | 1016.7 |
| 20260901130307 | 77 | 248 | 0.0 | 1.0 | 0.00 | 0.00 | 0.00 | 86 | 1016.9 |
| 20260901125804 | 77 | 254 | 0.0 | 1.0 | 0.00 | 0.00 | 0.00 | 86 | 1016.7 |
| 20260901125259 | 77 | 247 | 0.0 | 2.0 | 0.00 | 0.00 | 0.00 | 87 | 1016.7 |
| 20260901124754 | 76 | 257 | 0.0 | 2.0 | 0.00 | 0.00 | 0.00 | 88 | 1017.1 |
| 20260901124249 | 76 | 255 | 0.0 | 1.0 | 0.00 | 0.00 | 0.00 | 88 | 1017.2 |
| 20260901123748 | 76 | 258 | 1.0 | 1.0 | 0.00 | 0.00 | 0.00 | 88 | 1017.1 |
| 20260901123243 | 76 | 259 | 2.0 | 5.0 | 0.00 | 0.00 | 0.00 | 88 | 1017.1 |
| 20260901122742 | 76 | 262 | 0.0 | 2.0 | 0.00 | 0.00 | 0.00 | 88 | 1017.1 |
| 20260901122236 | 76 | 274 | 0.0 | 1.0 | 0.00 | 0.00 | 0.00 | 89 | 1017.1 |
| 20260901121731 | 76 | 299 | 1.0 | 2.0 | 0.00 | 0.00 | 0.00 | 89 | 1017.0 |
| 20260901121226 | 76 | 245 | 0.0 | 1.0 | 0.00 | 0.00 | 0.00 | 90 | 1017.1 |
| 20260901120726 | 75 | 237 | 0.0 | 2.0 | 0.00 | 0.00 | 0.00 | 91 | 1017.1 |
| 20260901120221 | 75 | 248 | 0.0 | 1.0 | 0.00 | 0.00 | 0.00 | 92 | 1017.0 |
| 20260901115715 | 74 | 242 | 0.0 | 2.0 | 0.00 | 0.00 | 0.00 | 93 | 1016.9 |
| 20260901115212 | 74 | 246 | 0.0 | 2.0 | 0.00 | 0.00 | 0.00 | 93 | 1017.1 |
| 20260901114709 | 74 | 249 | 1.0 | 2.0 | 0.00 | 0.00 | 0.00 | 93 | 1017.0 |
| 20260901114208 | 74 | 258 | 0.0 | 1.0 | 0.00 | 0.00 | 0.00 | 93 | 1017.0 |
| 20260901113702 | 74 | 241 | 0.0 | 0.0 | 0.00 | 0.00 | 0.00 | 93 | 1017.0 |
| 20260901113157 | 74 | 249 | 0.0 | 0.0 | 0.00 | 0.00 | 0.00 | 93 | 1016.9 |
| 20260901112656 | 73 | 267 | 1.0 | 2.0 | 0.00 | 0.00 | 0.00 | 93 | 1016.5 |
| 20260901112150 | 73 | 264 | 0.0 | 1.0 | 0.00 | 0.00 | 0.00 | 93 | 1016.9 |
| 20260901111649 | 73 | 265 | 0.0 | 0.0 | 0.00 | 0.00 | 0.00 | 93 | 1016.6 |
| 20260901111144 | 73 | 245 | 0.0 | 1.0 | 0.00 | 0.00 | 0.00 | 93 | 1016.6 |
| 20260901110639 | 73 | 239 | 0.0 | 1.0 | 0.00 | 0.00 | 0.00 | 93 | 1016.6 |
| 20260901110134 | 73 | 245 | 1.0 | 1.0 | 0.00 | 0.00 | 0.00 | 93 | 1016.5 |
| 20260901105631 | 74 | 293 | 2.0 | 2.0 | 0.00 | 0.00 | 0.00 | 92 | 1016.6 |
| 20260901105130 | 74 | 236 | 0.0 | 3.0 | 0.00 | 0.00 | 0.00 | 92 | 1016.6 |
| 20260901104626 | 74 | 235 | 0.0 | 2.0 | 0.00 | 0.00 | 0.00 | 92 | 1016.5 |
| 20260901104121 | 74 | 239 | 0.0 | 1.0 | 0.00 | 0.00 | 0.00 | 92 | 1016.4 |
| 20260901103615 | 74 | 236 | 0.0 | 0.0 | 0.00 | 0.00 | 0.00 | 92 | 1016.6 |
| 20260901103110 | 74 | 235 | 1.0 | 2.0 | 0.00 | 0.00 | 0.00 | 92 | 1016.3 |
| 20260901102604 | 74 | 297 | 0.0 | 1.0 | 0.00 | 0.00 | 0.00 | 91 | 1016.4 |
| 20260901102059 | 74 | 239 | 0.0 | 3.0 | 0.00 | 0.00 | 0.00 | 91 | 1016.4 |
| 20260901101555 | 74 | 239 | 0.0 | 1.0 | 0.00 | 0.00 | 0.00 | 91 | 1016.6 |
| 20260901101054 | 74 | 241 | 1.0 | 1.0 | 0.00 | 0.00 | 0.00 | 91 | 1016.6 |
| 20260901100549 | 75 | 225 | 1.0 | 2.0 | 0.00 | 0.00 | 0.00 | 91 | 1016.5 |
| 20260901100048 | 75 | 245 | 2.0 | 3.0 | 0.00 | 0.00 | 0.00 | 91 | 1016.4 |
| 20260901095547 | 75 | 239 | 0.0 | 0.0 | 0.00 | 0.00 | 0.00 | 90 | 1016.3 |
| 20260901095044 | 75 | 225 | 2.0 | 2.0 | 0.00 | 0.00 | 0.00 | 90 | 1016.2 |
| 20260901094540 | 75 | 245 | 1.0 | 2.0 | 0.00 | 0.00 | 0.00 | 90 | 1016.3 |
| 20260901094039 | 75 | 239 | 0.0 | 2.0 | 0.00 | 0.00 | 0.00 | 90 | 1016.5 |
| 20260901093534 | 75 | 256 | 1.0 | 2.0 | 0.00 | 0.00 | 0.00 | 90 | 1016.3 |
| 20260901093029 | 75 | 241 | 1.0 | 2.0 | 0.00 | 0.00 | 0.00 | 90 | 1016.4 |
| 20260901092525 | 75 | 242 | 0.0 | 1.0 | 0.00 | 0.00 | 0.00 | 89 | 1016.0 |
| 20260901092021 | 75 | 239 | 1.0 | 2.0 | 0.00 | 0.00 | 0.00 | 89 | 1016.2 |
| 20260901091516 | 75 | 248 | 1.0 | 1.0 | 0.00 | 0.00 | 0.00 | 89 | 1016.0 |
| 20260901091016 | 75 | 239 | 1.0 | 2.0 | 0.00 | 0.00 | 0.00 | 89 | 1016.0 |
| 20260901090515 | 75 | 242 | 1.0 | 2.0 | 0.00 | 0.00 | 0.00 | 89 | 1015.8 |
| 20260901090011 | 75 | 234 | 0.0 | 1.0 | 0.00 | 0.00 | 0.00 | 90 | 1016.0 |
| 20260901085507 | 75 | 242 | 0.0 | 1.0 | 0.00 | 0.00 | 0.00 | 90 | 1016.0 |
| 20260901085003 | 75 | 256 | 0.0 | 1.0 | 0.00 | 0.00 | 0.00 | 90 | 1016.3 |
| 20260901084458 | 75 | 241 | 0.0 | 1.0 | 0.00 | 0.00 | 0.00 | 91 | 1016.1 |
| 20260901083954 | 75 | 239 | 0.0 | 3.0 | 0.00 | 0.00 | 0.00 | 91 | 1016.1 |
| 20260901083449 | 75 | 252 | 1.0 | 2.0 | 0.00 | 0.00 | 0.00 | 91 | 1016.1 |
| 20260901082947 | 75 | 239 | 1.0 | 5.0 | 0.00 | 0.00 | 0.00 | 92 | 1016.0 |
| 20260901082442 | 74 | 242 | 0.0 | 1.0 | 0.00 | 0.00 | 0.00 | 92 | 1016.1 |
| 20260901081937 | 74 | 252 | 1.0 | 2.0 | 0.00 | 0.00 | 0.00 | 93 | 1016.0 |
| 20260901081432 | 74 | 241 | 0.0 | 1.0 | 0.00 | 0.00 | 0.00 | 93 | 1015.9 |
| 20260901080926 | 74 | 236 | 0.0 | 1.0 | 0.00 | 0.00 | 0.00 | 93 | 1016.1 |
| 20260901080421 | 74 | 227 | 0.0 | 1.0 | 0.00 | 0.00 | 0.00 | 93 | 1015.9 |
| 20260901075915 | 74 | 239 | 0.0 | 0.0 | 0.00 | 0.00 | 0.00 | 93 | 1016.0 |
| 20260901075411 | 74 | 239 | 0.0 | 1.0 | 0.00 | 0.00 | 0.00 | 93 | 1015.8 |
| 20260901074910 | 74 | 239 | 0.0 | 1.0 | 0.00 | 0.00 | 0.00 | 93 | 1016.0 |
| 20260901074405 | 74 | 201 | 0.0 | 1.0 | 0.00 | 0.00 | 0.00 | 93 | 1016.1 |
| 20260901073901 | 74 | 242 | 0.0 | 1.0 | 0.00 | 0.00 | 0.00 | 93 | 1016.1 |
| 20260901073356 | 74 | 239 | 0.0 | 0.0 | 0.00 | 0.00 | 0.00 | 93 | 1016.3 |
| 20260901072852 | 74 | 239 | 0.0 | 0.0 | 0.00 | 0.00 | 0.00 | 93 | 1016.2 |
| 20260901072352 | 74 | 239 | 0.0 | 0.0 | 0.00 | 0.00 | 0.00 | 93 | 1016.1 |
| 20260901071847 | 74 | 223 | 0.0 | 0.0 | 0.00 | 0.00 | 0.00 | 93 | 1016.3 |
| 20260901071345 | 74 | 242 | 0.0 | 0.0 | 0.00 | 0.00 | 0.00 | 92 | 1016.2 |
| 20260901070844 | 74 | 239 | 0.0 | 0.0 | 0.00 | 0.00 | 0.00 | 92 | 1016.1 |
| 20260901070340 | 74 | 229 | 0.0 | 0.0 | 0.00 | 0.00 | 0.00 | 92 | 1016.1 |
| 20260901065839 | 74 | 241 | 0.0 | 1.0 | 0.00 | 0.00 | 0.00 | 92 | 1016.0 |
| 20260901065334 | 74 | 239 | 0.0 | 1.0 | 0.00 | 0.00 | 0.00 | 92 | 1016.1 |
| 20260901064830 | 74 | 241 | 1.0 | 3.0 | 0.00 | 0.00 | 0.00 | 92 | 1016.1 |
| 20260901064326 | 74 | 249 | 0.0 | 0.0 | 0.00 | 0.00 | 0.00 | 92 | 1016.2 |
| 20260901063824 | 75 | 229 | 0.0 | 0.0 | 0.00 | 0.00 | 0.00 | 91 | 1016.2 |
| 20260901063320 | 74 | 277 | 1.0 | 2.0 | 0.00 | 0.00 | 0.00 | 92 | 1016.3 |
| 20260901062815 | 75 | 230 | 0.0 | 1.0 | 0.00 | 0.00 | 0.00 | 91 | 1016.1 |
| 20260901062311 | 75 | 245 | 2.0 | 2.0 | 0.00 | 0.00 | 0.00 | 91 | 1016.3 |
| 20260901061806 | 75 | 232 | 0.0 | 1.0 | 0.00 | 0.00 | 0.00 | 91 | 1016.2 |
| 20260901061301 | 75 | 232 | 0.0 | 1.0 | 0.00 | 0.00 | 0.00 | 91 | 1016.4 |
| 20260901060756 | 75 | 303 | 2.0 | 2.0 | 0.00 | 0.00 | 0.00 | 91 | 1016.6 |
| 20260901060252 | 75 | 224 | 0.0 | 0.0 | 0.00 | 0.00 | 0.00 | 91 | 1016.5 |
| 20260901055746 | 75 | 249 | 0.0 | 1.0 | 0.00 | 0.00 | 0.00 | 90 | 1016.6 |
| 20260901055243 | 75 | 242 | 0.0 | 0.0 | 0.00 | 0.00 | 0.00 | 90 | 1016.3 |
| 20260901054740 | 75 | 242 | 1.0 | 2.0 | 0.00 | 0.00 | 0.00 | 90 | 1016.3 |
| 20260901054236 | 75 | 239 | 0.0 | 1.0 | 0.00 | 0.00 | 0.00 | 90 | 1016.2 |
| 20260901053732 | 75 | 241 | 0.0 | 0.0 | 0.00 | 0.00 | 0.00 | 90 | 1016.3 |
| 20260901053227 | 75 | 239 | 0.0 | 1.0 | 0.00 | 0.00 | 0.00 | 90 | 1016.6 |
| 20260901052722 | 75 | 248 | 0.0 | 1.0 | 0.00 | 0.00 | 0.00 | 90 | 1016.5 |
| 20260901052218 | 75 | 272 | 1.0 | 2.0 | 0.00 | 0.00 | 0.00 | 90 | 1016.4 |
| 20260901051717 | 75 | 241 | 0.0 | 0.0 | 0.00 | 0.00 | 0.00 | 90 | 1016.6 |
| 20260901051217 | 75 | 242 | 1.0 | 1.0 | 0.00 | 0.00 | 0.00 | 89 | 1016.4 |
| 20260901050712 | 75 | 242 | 0.0 | 0.0 | 0.00 | 0.00 | 0.00 | 89 | 1016.4 |
| 20260901050207 | 75 | 242 | 0.0 | 0.0 | 0.00 | 0.00 | 0.00 | 89 | 1016.4 |
| 20260901045702 | 75 | 229 | 0.0 | 0.0 | 0.00 | 0.00 | 0.00 | 89 | 1016.4 |
| 20260901045157 | 75 | 245 | 0.0 | 1.0 | 0.00 | 0.00 | 0.00 | 89 | 1016.3 |
| 20260901044652 | 75 | 236 | 0.0 | 0.0 | 0.00 | 0.00 | 0.00 | 89 | 1016.3 |
| 20260901044148 | 75 | 242 | 0.0 | 0.0 | 0.00 | 0.00 | 0.00 | 88 | 1016.2 |
| 20260901043644 | 75 | 188 | 1.0 | 1.0 | 0.00 | 0.00 | 0.00 | 88 | 1016.3 |
| 20260901043140 | 75 | 242 | 1.0 | 1.0 | 0.00 | 0.00 | 0.00 | 88 | 1016.2 |
| 20260901042638 | 75 | 220 | 1.0 | 1.0 | 0.00 | 0.00 | 0.00 | 88 | 1016.0 |
| 20260901042134 | 75 | 211 | 0.0 | 1.0 | 0.00 | 0.00 | 0.00 | 88 | 1016.1 |
| 20260901041630 | 75 | 214 | 0.0 | 1.0 | 0.00 | 0.00 | 0.00 | 87 | 1016.2 |
| 20260901041124 | 75 | 236 | 0.0 | 1.0 | 0.00 | 0.00 | 0.00 | 87 | 1016.4 |
| 20260901040624 | 75 | 241 | 0.0 | 1.0 | 0.00 | 0.00 | 0.00 | 87 | 1016.3 |
| 20260901040123 | 75 | 239 | 0.0 | 1.0 | 0.00 | 0.00 | 0.00 | 86 | 1016.5 |
| 20260901035621 | 76 | 248 | 1.0 | 2.0 | 0.00 | 0.07 | 0.07 | 86 | 1016.4 |
| 20260901035120 | 76 | 276 | 0.0 | 2.0 | 0.00 | 0.07 | 0.07 | 86 | 1016.4 |
| 20260901034615 | 76 | 242 | 0.0 | 1.0 | 0.00 | 0.07 | 0.07 | 86 | 1016.5 |
| 20260901034109 | 76 | 316 | 2.0 | 2.0 | 0.00 | 0.07 | 0.07 | 86 | 1016.3 |
| 20260901033608 | 75 | 229 | 0.0 | 1.0 | 0.00 | 0.07 | 0.07 | 86 | 1016.2 |
| 20260901033103 | 75 | 239 | 0.0 | 1.0 | 0.00 | 0.07 | 0.07 | 86 | 1016.5 |
| 20260901032602 | 75 | 245 | 0.0 | 1.0 | 0.00 | 0.07 | 0.07 | 86 | 1016.4 |
| 20260901032057 | 75 | 239 | 0.0 | 0.0 | 0.00 | 0.07 | 0.07 | 86 | 1016.6 |
| 20260901031552 | 75 | 248 | 1.0 | 3.0 | 0.00 | 0.07 | 0.07 | 86 | 1016.4 |
| 20260901031048 | 75 | 239 | 0.0 | 1.0 | 0.00 | 0.07 | 0.07 | 86 | 1016.6 |
| 20260901030548 | 75 | 284 | 0.0 | 1.0 | 0.00 | 0.07 | 0.07 | 86 | 1016.4 |
| 20260901030042 | 75 | 245 | 0.0 | 1.0 | 0.00 | 0.07 | 0.07 | 86 | 1016.5 |
| 20260901025536 | 74 | 227 | 1.0 | 1.0 | 0.00 | 0.07 | 0.07 | 86 | 1016.5 |
| 20260901025031 | 74 | 239 | 0.0 | 1.0 | 0.00 | 0.07 | 0.07 | 86 | 1016.2 |
| 20260901024526 | 74 | 242 | 0.0 | 1.0 | 0.00 | 0.07 | 0.07 | 86 | 1016.4 |
| 20260901024025 | 74 | 268 | 1.0 | 2.0 | 0.00 | 0.07 | 0.07 | 87 | 1016.6 |
| 20260901023519 | 73 | 235 | 0.0 | 0.0 | 0.00 | 0.07 | 0.07 | 87 | 1016.6 |
| 20260901023014 | 73 | 291 | 1.0 | 2.0 | 0.00 | 0.07 | 0.07 | 87 | 1016.6 |
| 20260901022509 | 73 | 239 | 0.0 | 1.0 | 0.00 | 0.07 | 0.07 | 88 | 1016.5 |
| 20260901022004 | 72 | 245 | 0.0 | 0.0 | 0.00 | 0.07 | 0.07 | 89 | 1016.6 |
| 20260901021500 | 72 | 248 | 0.0 | 0.0 | 0.00 | 0.07 | 0.07 | 89 | 1016.9 |
| 20260901020955 | 72 | 245 | 0.0 | 0.0 | 0.00 | 0.07 | 0.07 | 90 | 1016.4 |
| 20260901020450 | 72 | 242 | 0.0 | 0.0 | 0.00 | 0.07 | 0.07 | 90 | 1016.4 |
| 20260901015949 | 72 | 242 | 0.0 | 0.0 | 0.00 | 0.07 | 0.07 | 90 | 1016.5 |
| 20260901015446 | 72 | 239 | 0.0 | 0.0 | 0.00 | 0.07 | 0.07 | 90 | 1016.3 |
| 20260901014945 | 72 | 238 | 0.0 | 0.0 | 0.00 | 0.07 | 0.07 | 90 | 1016.4 |
| 20260901014441 | 72 | 230 | 0.0 | 0.0 | 0.00 | 0.07 | 0.07 | 90 | 1016.3 |
| 20260901013937 | 72 | 235 | 0.0 | 0.0 | 0.00 | 0.07 | 0.07 | 90 | 1016.6 |
| 20260901013432 | 72 | 231 | 0.0 | 1.0 | 0.00 | 0.07 | 0.07 | 90 | 1016.6 |
| 20260901012928 | 72 | 239 | 0.0 | 0.0 | 0.00 | 0.07 | 0.07 | 90 | 1016.5 |
| 20260901012422 | 72 | 239 | 0.0 | 0.0 | 0.00 | 0.07 | 0.07 | 90 | 1016.4 |
| 20260901011918 | 72 | 239 | 0.0 | 0.0 | 0.00 | 0.07 | 0.07 | 89 | 1016.4 |
| 20260901011414 | 73 | 247 | 0.0 | 0.0 | 0.00 | 0.07 | 0.07 | 89 | 1016.6 |
| 20260901010912 | 73 | 249 | 0.0 | 1.0 | 0.00 | 0.07 | 0.07 | 89 | 1016.6 |
| 20260901010407 | 73 | 248 | 0.0 | 1.0 | 0.00 | 0.07 | 0.07 | 88 | 1016.4 |
| 20260901005906 | 73 | 256 | 0.0 | 1.0 | 0.00 | 0.07 | 0.07 | 89 | 1016.2 |
| 20260901005401 | 73 | 239 | 0.0 | 0.0 | 0.00 | 0.07 | 0.07 | 89 | 1016.2 |
| 20260901004856 | 73 | 266 | 0.0 | 1.0 | 0.00 | 0.07 | 0.07 | 89 | 1016.0 |
| 20260901004355 | 73 | 242 | 0.0 | 0.0 | 0.00 | 0.07 | 0.07 | 89 | 1016.2 |
| 20260901003850 | 73 | 239 | 0.0 | 0.0 | 0.00 | 0.07 | 0.07 | 89 | 1015.9 |
| 20260901003345 | 73 | 252 | 0.0 | 1.0 | 0.00 | 0.07 | 0.07 | 89 | 1016.0 |
| 20260901002844 | 73 | 227 | 0.0 | 1.0 | 0.00 | 0.07 | 0.07 | 89 | 1015.8 |
| 20260901002343 | 73 | 193 | 0.0 | 2.0 | 0.00 | 0.07 | 0.07 | 90 | 1015.7 |
| 20260901001838 | 73 | 231 | 0.0 | 0.0 | 0.00 | 0.07 | 0.07 | 90 | 1015.8 |
| 20260901001333 | 73 | 239 | 0.0 | 0.0 | 0.00 | 0.07 | 0.07 | 89 | 1016.0 |
| 20260901000829 | 73 | 238 | 0.0 | 0.0 | 0.00 | 0.07 | 0.07 | 89 | 1016.1 |
| 20260901000324 | 73 | 239 | 0.0 | 0.0 | 0.00 | 0.07 | 0.07 | 89 | 1016.1 |
| 20260831235822 | 73 | 239 | 0.0 | 0.0 | 0.00 | 0.07 | 0.07 | 88 | 1016.1 |
| 20260831235318 | 73 | 256 | 1.0 | 1.0 | 0.00 | 0.07 | 0.07 | 88 | 1016.0 |
| 20260831234813 | 73 | 258 | 1.0 | 1.0 | 0.00 | 0.07 | 0.07 | 88 | 1016.2 |
| 20260831234313 | 73 | 234 | 0.0 | 1.0 | 0.00 | 0.07 | 0.07 | 88 | 1016.1 |
| 20260831233808 | 74 | 255 | 0.0 | 1.0 | 0.00 | 0.07 | 0.07 | 88 | 1016.1 |
| 20260831233304 | 74 | 216 | 0.0 | 1.0 | 0.00 | 0.07 | 0.07 | 88 | 1016.0 |
| 20260831232759 | 74 | 215 | 0.0 | 1.0 | 0.00 | 0.07 | 0.07 | 88 | 1016.1 |
| 20260831232255 | 74 | 230 | 1.0 | 1.0 | 0.00 | 0.07 | 0.07 | 89 | 1016.2 |
| 20260831231751 | 74 | 234 | 0.0 | 2.0 | 0.00 | 0.07 | 0.07 | 90 | 1016.3 |
| 20260831231247 | 74 | 244 | 0.0 | 1.0 | 0.00 | 0.07 | 0.07 | 91 | 1016.3 |
| 20260831230742 | 74 | 222 | 1.0 | 2.0 | 0.00 | 0.07 | 0.07 | 91 | 1016.2 |
| 20260831230237 | 74 | 246 | 0.0 | 1.0 | 0.00 | 0.07 | 0.07 | 91 | 1016.2 |
| 20260831225736 | 74 | 248 | 0.0 | 1.0 | 0.00 | 0.07 | 0.07 | 91 | 1016.3 |
| 20260831225232 | 74 | 230 | 0.0 | 0.0 | 0.00 | 0.07 | 0.07 | 91 | 1016.5 |
| 20260831224726 | 74 | 255 | 1.0 | 2.0 | 0.05 | 0.07 | 0.07 | 91 | 1016.3 |
| 20260831224222 | 75 | 253 | 1.0 | 1.0 | 0.05 | 0.07 | 0.07 | 90 | 1016.4 |
| 20260831223717 | 75 | 209 | 1.0 | 1.0 | 0.00 | 0.06 | 0.06 | 90 | 1016.9 |
| 20260831223214 | 75 | 239 | 1.0 | 3.0 | 0.00 | 0.06 | 0.06 | 90 | 1016.7 |
| 20260831222709 | 75 | 231 | 0.0 | 2.0 | 0.00 | 0.06 | 0.06 | 90 | 1016.9 |
| 20260831222205 | 75 | 185 | 1.0 | 3.0 | 0.00 | 0.06 | 0.06 | 90 | 1016.5 |
| 20260831221700 | 76 | 263 | 1.0 | 2.0 | 0.07 | 0.06 | 0.06 | 91 | 1017.2 |
| 20260831221155 | 76 | 210 | 0.0 | 0.0 | 0.07 | 0.06 | 0.06 | 91 | 1017.6 |
| 20260831220650 | 76 | 224 | 0.0 | 2.0 | 0.05 | 0.05 | 0.05 | 91 | 1017.7 |
| 20260831220145 | 76 | 207 | 0.0 | 1.0 | 0.05 | 0.05 | 0.05 | 91 | 1017.6 |
| 20260831215640 | 76 | 240 | 1.0 | 1.0 | 0.00 | 0.04 | 0.04 | 91 | 1017.7 |
| 20260831215136 | 77 | 244 | 0.0 | 1.0 | 0.07 | 0.04 | 0.04 | 90 | 1017.7 |
| 20260831214633 | 77 | 249 | 0.0 | 0.0 | 0.19 | 0.04 | 0.04 | 88 | 1018.1 |
| 20260831214129 | 78 | 246 | 0.0 | 3.0 | 0.19 | 0.03 | 0.03 | 86 | 1018.1 |
| 20260831213626 | 79 | 312 | 1.0 | 2.0 | 0.07 | 0.01 | 0.01 | 83 | 1018.0 |
| 20260831213121 | 80 | 172 | 1.0 | 2.0 | 0.00 | 0.00 | 0.00 | 79 | 1017.9 |
| 20260831212617 | 81 | 280 | 1.0 | 2.0 | 0.00 | 0.00 | 0.00 | 75 | 1017.9 |
| 20260831212113 | 82 | 218 | 1.0 | 3.0 | 0.00 | 0.00 | 0.00 | 73 | 1018.1 |
| 20260831211612 | 83 | 254 | 0.0 | 2.0 | 0.00 | 0.00 | 0.00 | 71 | 1018.0 |
| 20260831211112 | 83 | 279 | 1.0 | 3.0 | 0.00 | 0.00 | 0.00 | 68 | 1018.1 |
| 20260831210607 | 84 | 214 | 0.0 | 1.0 | 0.00 | 0.00 | 0.00 | 67 | 1018.0 |
| 20260831210103 | 84 | 234 | 1.0 | 1.0 | 0.00 | 0.00 | 0.00 | 66 | 1018.1 |
| 20260831205602 | 85 | 254 | 3.0 | 3.0 | 0.00 | 0.00 | 0.00 | 64 | 1018.2 |
| 20260831205059 | 85 | 248 | 0.0 | 2.0 | 0.00 | 0.00 | 0.00 | 65 | 1018.3 |
| 20260831204553 | 86 | 325 | 0.0 | 1.0 | 0.00 | 0.00 | 0.00 | 63 | 1018.2 |
| 20260831204051 | 85 | 233 | 0.0 | 2.0 | 0.00 | 0.00 | 0.00 | 63 | 1018.0 |
| 20260831203546 | 86 | 236 | 0.0 | 1.0 | 0.00 | 0.00 | 0.00 | 65 | 1017.7 |
| 20260831203045 | 86 | 173 | 1.0 | 5.0 | 0.00 | 0.00 | 0.00 | 65 | 1017.8 |
| 20260831202544 | 85 | 169 | 3.0 | 3.0 | 0.00 | 0.00 | 0.00 | 65 | 1018.0 |
| 20260831202044 | 85 | 180 | 1.0 | 5.0 | 0.00 | 0.00 | 0.00 | 64 | 1017.8 |
| 20260831201543 | 86 | 174 | 2.0 | 5.0 | 0.00 | 0.00 | 0.00 | 64 | 1017.5 |
| 20260831201039 | 87 | 198 | 2.0 | 5.0 | 0.00 | 0.00 | 0.00 | 62 | 1017.7 |
| 20260831200534 | 87 | 204 | 1.0 | 1.0 | 0.00 | 0.00 | 0.00 | 62 | 1017.8 |
| 20260831200035 | 87 | 189 | 2.0 | 3.0 | 0.00 | 0.00 | 0.00 | 62 | 1017.9 |
| 20260831195530 | 87 | 227 | 1.0 | 2.0 | 0.00 | 0.00 | 0.00 | 58 | 1017.9 |
| 20260831195025 | 86 | 231 | 0.0 | 3.0 | 0.00 | 0.00 | 0.00 | 61 | 1018.0 |
| 20260831194520 | 87 | 252 | 1.0 | 1.0 | 0.00 | 0.00 | 0.00 | 59 | 1018.1 |
| 20260831194020 | 88 | 201 | 2.0 | 5.0 | 0.00 | 0.00 | 0.00 | 60 | 1018.1 |
| 20260831193516 | 88 | 257 | 0.0 | 1.0 | 0.00 | 0.00 | 0.00 | 58 | 1018.1 |
| 20260831193011 | 87 | 103 | 0.0 | 0.0 | 0.00 | 0.00 | 0.00 | 60 | 1018.2 |
| 20260831192506 | 87 | 211 | 1.0 | 2.0 | 0.00 | 0.00 | 0.00 | 60 | 1018.2 |
| 20260831192000 | 86 | 315 | 1.0 | 2.0 | 0.00 | 0.00 | 0.00 | 61 | 1018.1 |
| 20260831191457 | 87 | 300 | 1.0 | 3.0 | 0.00 | 0.00 | 0.00 | 60 | 1018.1 |
| 20260831190953 | 87 | 298 | 2.0 | 3.0 | 0.00 | 0.00 | 0.00 | 61 | 1018.2 |
| 20260831190448 | 87 | 235 | 0.0 | 2.0 | 0.00 | 0.00 | 0.00 | 62 | 1017.9 |
| 20260831185946 | 87 | 274 | 0.0 | 1.0 | 0.00 | 0.00 | 0.00 | 62 | 1018.3 |
| 20260831185443 | 88 | 312 | 2.0 | 3.0 | 0.00 | 0.00 | 0.00 | 60 | 1018.2 |
| 20260831184942 | 87 | 354 | 0.0 | 1.0 | 0.00 | 0.00 | 0.00 | 60 | 1018.1 |